Bryce Canyon, UT

6:07 PM MST on November 22, 2017 (GMT -0700)
Bryce Canyon

Weather History for KBCE - September, 2013

Change the Weather History Date:

Friday, September 6, 2013

  Actual Average Record
Temperature  
Mean Temperature 60 °F -  
Max Temperature 75 °F 73 °F 82 °F (1977)
Min Temperature 48 °F 41 °F 30 °F (1970)
Degree Days  
Heating Degree Days 4    
Growing Degree Days 10 (Base 50)    
Moisture  
Dew Point 49 °F    
Average Humidity 69    
Maximum Humidity 93    
Minimum Humidity 40    
Precipitation  
Precipitation 0.10 in - - ()
Sea Level Pressure  
Sea Level Pressure 30.09 in    
Wind  
Wind Speed 7 mph (West)    
Max Wind Speed 25 mph    
Max Gust Speed 36 mph    
Visibility 10 miles    
Events Rain , Thunderstorm    
Averages and records for this station are not official NWS values.
T = Trace of Precipitation, MM = Missing Value Source: NWS Daily Summary

Daily Weather History Graph

Daily Weather History Graph

Search for Another Location

Airport or City:

Trip Planner

Search our weather history database for the weather conditions in past years. The results will help you decide how hot, cold, wet, or windy it might be!

Date:

Astronomy

Sep. 06, 2013 Rise Set
Actual Time 7:03 AM MDT 7:49 PM MDT
Civil Twilight 6:36 AM MDT 8:16 PM MDT
Nautical Twilight 6:05 AM MDT 8:47 PM MDT
Astronomical Twilight 5:32 AM MDT 9:19 PM MDT
Moon 8:16 AM MDT (9/6) 8:19 PM MDT (9/6)
Length of Visible Light 13h 39m
Length of Day
12h 46m
New Moon, 2% of the Moon is Illuminated
Sep 6
New Moon
Sep 12
First Quarter
Sep 19
Full
Sep 26
Last Quarter
Oct 4
New

Hourly Weather History & Observations

Time (MDT) Temp. Dew Point Humidity Pressure Visibility Wind Dir Wind Speed Gust Speed Precip Events Conditions
12:53 AM 53.1 °F 48.9 °F 86% 30.06 in 10.0 mi West 6.9 mph - N/A   Clear
1:53 AM 52.0 °F 48.9 °F 89% 30.07 in 10.0 mi West 8.1 mph - N/A   Clear
2:53 AM 51.1 °F 48.0 °F 89% 30.06 in 10.0 mi West 9.2 mph - N/A   Clear
3:53 AM 50.0 °F 48.0 °F 93% 30.07 in 10.0 mi West 6.9 mph - N/A   Clear
4:53 AM 48.9 °F 46.9 °F 93% 30.07 in 10.0 mi West 8.1 mph - N/A   Partly Cloudy
5:53 AM 48.9 °F 46.0 °F 90% 30.06 in 10.0 mi West 8.1 mph - N/A   Clear
6:53 AM 48.9 °F 46.0 °F 90% 30.07 in 10.0 mi West 8.1 mph - 0.01 in   Clear
7:53 AM 51.1 °F 46.9 °F 86% 30.12 in 10.0 mi West 6.9 mph - N/A   Partly Cloudy
8:53 AM 60.1 °F 50.0 °F 69% 30.12 in 10.0 mi WNW 3.5 mph - N/A   Mostly Cloudy
9:53 AM 66.9 °F 48.9 °F 52% 30.09 in 10.0 mi Calm Calm - N/A   Mostly Cloudy
10:53 AM 71.1 °F 48.9 °F 45% 30.08 in 10.0 mi Calm Calm - N/A   Mostly Cloudy
11:53 AM 73.9 °F 48.0 °F 40% 30.07 in 10.0 mi SSE 11.5 mph 17.3 mph N/A Thunderstorm Mostly Cloudy
12:32 PM 69.8 °F 50.0 °F 49% 30.42 in 10.0 mi West 6.9 mph - N/A   Partly Cloudy
12:53 PM 64.9 °F 54.0 °F 68% 30.11 in 10.0 mi West 9.2 mph - 0.01 in Rain Light Rain
1:53 PM 71.1 °F 50.0 °F 47% 30.07 in 10.0 mi West 10.4 mph - 0.00 in   Mostly Cloudy
2:49 PM 69.8 °F 48.2 °F 46% 30.39 in 10.0 mi West 9.2 mph - N/A Thunderstorm Thunderstorm
3:12 PM 62.6 °F 46.4 °F 55% 30.39 in 10.0 mi ESE 25.3 mph 35.7 mph 0.00 in Rain , Thunderstorm Light Thunderstorms and Rain
3:53 PM 61.0 °F 51.1 °F 70% 30.09 in 10.0 mi East 11.5 mph - 0.08 in   Overcast
4:53 PM 69.1 °F 51.1 °F 53% 30.04 in 10.0 mi NE 6.9 mph - 0.00 in   Clear
5:53 PM 72.0 °F 48.0 °F 43% 30.00 in 10.0 mi NNE 6.9 mph - N/A   Partly Cloudy
6:53 PM 72.0 °F 48.0 °F 43% 29.99 in 10.0 mi Calm Calm - N/A   Scattered Clouds
7:53 PM 64.0 °F 54.0 °F 70% 30.01 in 10.0 mi SE 3.5 mph - N/A   Clear
8:53 PM 61.0 °F 55.9 °F 83% 30.00 in 10.0 mi Calm Calm - N/A   Partly Cloudy
9:53 PM 57.0 °F 53.1 °F 87% 30.00 in 10.0 mi WSW 5.8 mph - N/A   Clear
10:53 PM 55.9 °F 51.1 °F 84% 30.00 in 10.0 mi West 8.1 mph - N/A   Clear
11:53 PM 54.0 °F 50.0 °F 86% 30.00 in 10.0 mi West 5.8 mph - N/A   Clear